Location: *
(40.4270°N, 9.4940°E)
Time: 08:48:30
(UTC+01:00)

Okean 2 - Visible Passes

Search period start: 08 December 2016 00:00
Search period end: 18 December 2016 00:00
Orbit: 563 x 578 km, 82.5° (Epoch: 06 December)

Date Brightness Start Highest point End Pass type
(mag) Time Alt. Az. Time Alt. Az. Time Alt. Az.
08 Dec 6.6 05:02:35 10° NE 05:03:35 11° ENE 05:04:36 10° E visible
08 Dec 3.4 06:36:44 10° NNW 06:40:51 59° W 06:44:55 10° S visible
08 Dec 4.3 18:59:23 10° S 19:02:01 38° SSE 19:02:01 38° SSE visible
09 Dec 6.4 05:03:41 10° NE 05:05:52 14° ENE 05:08:03 10° ESE visible
09 Dec 3.7 06:38:59 10° NNW 06:42:59 44° W 06:46:56 10° SSW visible
09 Dec 3.4 19:01:29 10° S 19:05:16 74° S 19:05:16 74° S visible
10 Dec 6.1 05:05:17 10° NNE 05:08:08 18° ENE 05:10:57 10° ESE visible
10 Dec 4.1 06:41:18 10° NNW 06:45:05 34° W 06:48:50 10° SSW visible
10 Dec 3.6 19:03:40 10° SSW 19:07:48 68° W 19:08:29 56° NNW visible
11 Dec 5.8 05:07:04 10° NNE 05:10:22 22° ENE 05:13:39 10° SE visible
11 Dec 4.4 06:43:41 10° NNW 06:47:10 26° W 06:50:39 10° SSW visible
11 Dec 5.3 17:32:11 10° ESE 17:33:39 12° E 17:35:07 10° ENE visible
11 Dec 4.2 19:05:55 10° SSW 19:09:58 51° W 19:11:37 31° NNW visible
12 Dec 5.3 05:09:36 13° NNE 05:12:35 28° ENE 05:16:11 10° SE visible
12 Dec 4.7 06:46:08 10° NW 06:49:15 20° W 06:52:20 10° SW visible
12 Dec 5.1 17:33:17 10° ESE 17:35:41 15° E 17:38:07 10° NE visible
12 Dec 4.7 19:08:15 10° SSW 19:12:10 39° WNW 19:14:43 19° NNW visible
13 Dec 4.8 05:12:42 22° NNE 05:14:48 36° ENE 05:18:38 10° SE visible
13 Dec 5.0 06:48:55 11° NW 06:51:18 16° W 06:53:51 10° SW visible
13 Dec 4.8 17:34:45 10° SE 17:37:45 19° E 17:40:46 10° NE visible
13 Dec 5.2 19:10:41 10° SW 19:14:21 30° WNW 19:17:43 12° NNW visible
14 Dec 4.3 05:15:53 37° NE 05:16:59 47° E 05:20:59 10° SSE visible
14 Dec 5.3 06:52:06 11° WNW 06:53:21 12° W 06:55:03 10° WSW visible
14 Dec 4.5 17:36:24 10° SE 17:39:49 25° E 17:43:15 10° NE visible
14 Dec 5.7 19:13:12 10° SW 19:16:35 24° WNW 19:19:59 10° NNW visible
15 Dec 3.7 05:19:06 63° ENE 05:19:10 63° E 05:23:15 10° SSE visible
15 Dec 4.2 17:38:11 10° SSE 17:41:54 32° E 17:45:38 10° NNE visible
15 Dec 6.1 19:15:51 10° WSW 19:18:49 19° WNW 19:21:48 10° NNW visible
16 Dec 4.0 05:22:21 50° SSE 05:22:21 50° SSE 05:25:27 10° S visible
16 Dec 3.8 17:40:04 10° SSE 17:44:00 42° E 17:47:57 10° NNE visible
16 Dec 6.3 19:18:41 10° WSW 19:21:04 15° WNW 19:23:27 10° NW visible
17 Dec 4.9 05:25:38 27° S 05:25:38 27° S 05:27:34 10° S visible
17 Dec 3.5 17:42:02 10° S 17:46:06 55° E 17:50:12 10° NNE visible
17 Dec 6.5 19:21:54 10° W 19:23:20 11° WNW 19:24:46 10° NW visible
